Home > Weather > Weiz > Past weeks

Flag for Austria Past Weather in Weiz, Styria, Austria — Yesterday and Last 2 Weeks

Now
82 °F

Partly sunny.


Feels Like: 81 °F
Forecast: 53 / 69 °F
Wind: 6 mph from South

Location: Graz-Thalerhof-Flughafen

Current Time: May 29, 2016 at 5:30:52 PM

Latest Report: May 29, 2016 at 5:00 PM


Visibility: 22 mi

Pressure: 29.62 "Hg

Humidity: 36%

Dew Point: 52 °F

Location of WeizLocation

Past Weather in Weiz — Graph

°F

Weiz Temperature Yesterday

Maximum temperature yesterday: 82 °F (at 6:00 PM)
Minimum temperature yesterday: 59 °F (at 6:00 AM)
Average temperature yesterday: 71 °F

High & Low Weather Summary for the Past Weeks

 TemperatureHumidityPressure
High82 °F (May 29, 4:00 PM)100% (May 26, 6:00 AM)30.17 "Hg (May 26, 6:00 AM)
Low36 °F (May 16, 5:00 AM)35% (May 23, 4:00 PM)29.63 "Hg (May 29, 4:00 PM)
Average60 °F68%29.93 "Hg
* Reported May 14 8:00 PM — May 29 4:00 PM, Weiz, Weather by CustomWeather, © 2016

Note: Actual official high and low records may vary slightly from our data, if they occured in-between our weather recording intervals... More about our weather records

Advertising

Weiz Weather History for the Previous 24 Hours

Scroll right to see more
 ConditionsComfort  
Time TempWeatherWind HumidityBarometerVisibility
4:00 PM
Sun, May 29
82 °FOvercast.6 mph42%29.63 "Hg16 mi
3:00 PM81 °FOvercast.6 mph46%29.64 "Hg18 mi
2:00 PM80 °FPartly sunny.N/A47%29.66 "Hg16 mi
1:00 PM78 °FPartly sunny.N/A46%29.68 "Hg15 mi
12:00 PM75 °FScattered clouds.N/A53%29.70 "Hg14 mi
11:00 AM72 °FScattered clouds.N/A64%29.72 "Hg16 mi
10:00 AM69 °FPassing clouds.N/A72%29.74 "Hg16 mi
9:00 AM65 °FPartly sunny.N/A78%29.75 "Hg19 mi
8:00 AM64 °FPartly sunny.N/A83%29.76 "Hg16 mi
7:00 AM62 °FPartly sunny.N/A85%29.76 "Hg16 mi
6:00 AM60 °FPartly sunny.N/A87%29.77 "Hg19 mi
5:00 AM60 °FCool.N/A86%29.78 "Hg28 mi
4:00 AM61 °FCool.N/A87%29.78 "Hg16 mi
3:00 AM62 °FCool.N/A85%29.78 "Hg19 mi
2:00 AM65 °FMild.N/A78%29.78 "Hg7 mi
1:00 AM67 °FPassing clouds.N/A74%29.79 "Hg25 mi
12:00 AM68 °FPassing clouds.N/A73%29.80 "Hg19 mi
11:00 PM
Sat, May 28
71 °FPassing clouds.N/A56%29.79 "Hg22 mi
10:00 PM71 °FPassing clouds.5 mph57%29.79 "Hg22 mi
9:00 PM73 °FPassing clouds.N/A59%29.76 "Hg25 mi
8:00 PM76 °FScattered clouds.3 mph58%29.76 "Hg22 mi
7:00 PM79 °FScattered clouds.5 mph46%29.76 "Hg25 mi
6:00 PM82 °FPassing clouds.5 mph45%29.76 "Hg19 mi
5:00 PM81 °FPassing clouds.5 mph46%29.78 "Hg22 mi
Weather by CustomWeather, © 2016

See weather overviewHow to use our weather pages